• In Hungary
  • List of Countries
  • For 7 days
  • Water Temperature
  • Satellite Maps
  • Weather Map
  • News
  • Weather Widgets
  • user-avatar
    Login

    Hourly Weather Nizwa

    Today, 18 October, Thursday

    Time Temperature Precipitation Wind Pressure Humidity
    00:00 +28°C° 0 mm 2 mps 696 mmHg 43%
    01:00 +27°C° 0 mm 2 mps 696 mmHg 46%
    02:00 +27°C° 0.1 mm 2 mps 696 mmHg 49%
    03:00 +26°C° 0.1 mm 2 mps 696 mmHg 52%
    04:00 +25°C° 0 mm 1 mps 696 mmHg 54%
    05:00 +25°C° 0.1 mm 1 mps 696 mmHg 54%
    06:00 +25°C° 0.1 mm 1 mps 696 mmHg 55%
    07:00 +25°C° 0.1 mm 1 mps 696 mmHg 55%
    08:00 +27°C° 0 mm 1 mps 697 mmHg 49%
    09:00 +26°C° 0 mm 0 mps 697 mmHg 44%
    10:00 +27°C° 0 mm 0 mps 697 mmHg 38%
    11:00 +28°C° 0 mm 0 mps 697 mmHg 35%
    12:00 +31°C° 0 mm 1 mps 697 mmHg 33%
    13:00 +32°C° 0 mm 1 mps 696 mmHg 30%
    14:00 +32°C° 0 mm 1 mps 696 mmHg 30%
    15:00 +32°C° 0 mm 1 mps 696 mmHg 30%
    16:00 +32°C° 0 mm 1 mps 695 mmHg 30%
    17:00 +31°C° 0.1 mm 1 mps 695 mmHg 32%
    18:00 +31°C° 0.1 mm 1 mps 696 mmHg 33%
    19:00 +30°C° 0.1 mm 1 mps 696 mmHg 35%
    20:00 +30°C° 0.1 mm 2 mps 696 mmHg 36%
    21:00 +30°C° 0.1 mm 2 mps 696 mmHg 37%
    22:00 +29°C° 0.1 mm 3 mps 697 mmHg 38%
    23:00 +28°C° 0 mm 3 mps 696 mmHg 41%

    Tomorrow, 19 October, Friday

    Time Temperature Precipitation Wind Pressure Humidity
    00:00 +28°C° 0 mm 2 mps 696 mmHg 44%
    01:00 +27°C° 0 mm 2 mps 696 mmHg 47%
    02:00 +27°C° 0 mm 2 mps 696 mmHg 49%
    03:00 +26°C° 0 mm 2 mps 696 mmHg 51%
    04:00 +26°C° 0 mm 1 mps 696 mmHg 53%
    05:00 +26°C° 0.1 mm 1 mps 696 mmHg 53%
    06:00 +26°C° 0.1 mm 1 mps 696 mmHg 53%
    07:00 +26°C° 0.1 mm 1 mps 697 mmHg 53%
    08:00 +27°C° 0 mm 1 mps 697 mmHg 48%
    09:00 +26°C° 0 mm 0 mps 698 mmHg 43%
    10:00 +27°C° 0 mm 0 mps 698 mmHg 38%
    11:00 +30°C° 0 mm 1 mps 698 mmHg 36%
    12:00 +31°C° 0 mm 1 mps 698 mmHg 33%
    13:00 +32°C° 0 mm 1 mps 697 mmHg 31%
    14:00 +32°C° 0 mm 1 mps 697 mmHg 32%
    15:00 +31°C° 0 mm 2 mps 697 mmHg 32%
    16:00 +31°C° 0 mm 2 mps 696 mmHg 33%
    17:00 +31°C° 0 mm 2 mps 697 mmHg 36%
    18:00 +30°C° 0 mm 2 mps 697 mmHg 38%
    19:00 +30°C° 0 mm 2 mps 697 mmHg 41%
    20:00 +29°C° 0.1 mm 3 mps 697 mmHg 42%
    21:00 +29°C° 0.1 mm 3 mps 698 mmHg 43%
    22:00 +28°C° 0.1 mm 3 mps 698 mmHg 44%
    23:00 +27°C° 0 mm 3 mps 698 mmHg 46%

    Day after tomorrow, 20 October, Saturday

    Time Temperature Precipitation Wind Pressure Humidity
    00:00 +27°C° 0 mm 2 mps 697 mmHg 49%
    01:00 +26°C° 0 mm 2 mps 697 mmHg 51%
    02:00 +26°C° 0 mm 1 mps 697 mmHg 52%
    03:00 +25°C° 0 mm 1 mps 697 mmHg 53%
    04:00 +25°C° 0 mm 1 mps 697 mmHg 54%
    05:00 +25°C° 0 mm 1 mps 697 mmHg 53%
    06:00 +23°C° 0 mm 0 mps 697 mmHg 52%
    07:00 +23°C° 0 mm 0 mps 698 mmHg 51%
    08:00 +25°C° 0 mm 0 mps 698 mmHg 46%
    09:00 +26°C° 0 mm 0 mps 699 mmHg 41%
    10:00 +27°C° 0 mm 0 mps 699 mmHg 36%
    11:00 +30°C° 0 mm 1 mps 699 mmHg 34%
    12:00 +31°C° 0 mm 1 mps 698 mmHg 31%
    13:00 +32°C° 0 mm 1 mps 698 mmHg 29%
    14:00 +32°C° 0.1 mm 1 mps 698 mmHg 29%
    15:00 +32°C° 0.1 mm 1 mps 697 mmHg 30%
    16:00 +32°C° 0.1 mm 1 mps 697 mmHg 30%
    17:00 +31°C° 0.1 mm 1 mps 697 mmHg 31%
    18:00 +31°C° 0.1 mm 2 mps 698 mmHg 33%
    19:00 +30°C° 0.1 mm 2 mps 698 mmHg 34%
    20:00 +29°C° 0 mm 2 mps 698 mmHg 36%
    21:00 +29°C° 0 mm 3 mps 698 mmHg 37%
    22:00 +28°C° 0 mm 3 mps 699 mmHg 38%
    23:00 +27°C° 0 mm 3 mps 698 mmHg 41%

    21 October, Sunday

    Time Temperature Precipitation Wind Pressure Humidity
    00:00 +27°C° 0 mm 2 mps 698 mmHg 44%
    01:00 +26°C° 0 mm 1 mps 698 mmHg 46%
    02:00 +25°C° 0 mm 1 mps 698 mmHg 47%
    03:00 +25°C° 0 mm 1 mps 697 mmHg 48%
    04:00 +23°C° 0 mm 0 mps 697 mmHg 49%
    05:00 +23°C° 0 mm 0 mps 698 mmHg 48%
    06:00 +23°C° 0 mm 0 mps 698 mmHg 47%
    07:00 +23°C° 0 mm 0 mps 699 mmHg 46%
    08:00 +25°C° 0 mm 0 mps 699 mmHg 41%
    09:00 +26°C° 0 mm 0 mps 699 mmHg 36%
    10:00 +30°C° 0 mm 1 mps 700 mmHg 32%
    11:00 +30°C° 0 mm 1 mps 699 mmHg 30%
    12:00 +31°C° 0 mm 1 mps 699 mmHg 28%
    13:00 +32°C° 0 mm 1 mps 698 mmHg 26%
    14:00 +32°C° 0 mm 1 mps 698 mmHg 26%
    15:00 +32°C° 0 mm 1 mps 698 mmHg 26%
    16:00 +32°C° 0 mm 1 mps 698 mmHg 27%
    17:00 +32°C° 0 mm 1 mps 698 mmHg 28%
    18:00 +31°C° 0 mm 1 mps 698 mmHg 30%
    19:00 +30°C° 0 mm 2 mps 698 mmHg 31%
    20:00 +30°C° 0 mm 2 mps 698 mmHg 32%
    21:00 +29°C° 0 mm 2 mps 699 mmHg 33%
    22:00 +29°C° 0 mm 3 mps 699 mmHg 35%
    23:00 +28°C° 0 mm 2 mps 699 mmHg 37%

    22 October, Monday

    Time Temperature Precipitation Wind Pressure Humidity
    00:00 +27°C° 0 mm 2 mps 698 mmHg 40%
    01:00 +26°C° 0 mm 2 mps 698 mmHg 43%
    02:00 +26°C° 0 mm 1 mps 698 mmHg 44%
    03:00 +26°C° 0 mm 1 mps 698 mmHg 45%
    04:00 +25°C° 0 mm 1 mps 698 mmHg 47%
    05:00 +23°C° 0 mm 0 mps 698 mmHg 46%
    06:00 +23°C° 0 mm 0 mps 698 mmHg 46%
    07:00 +23°C° 0 mm 0 mps 699 mmHg 45%
    08:00 +25°C° 0 mm 0 mps 699 mmHg 41%
    09:00 +28°C° 0 mm 1 mps 699 mmHg 37%
    10:00 +29°C° 0 mm 1 mps 700 mmHg 33%
    11:00 +30°C° 0 mm 1 mps 699 mmHg 31%
    12:00 +31°C° 0 mm 1 mps 699 mmHg 29%
    13:00 +32°C° 0 mm 1 mps 698 mmHg 27%
    14:00 +32°C° 0 mm 1 mps 698 mmHg 27%
    15:00 +32°C° 0 mm 1 mps 698 mmHg 27%
    16:00 +32°C° 0 mm 1 mps 697 mmHg 27%
    17:00 +32°C° 0 mm 1 mps 698 mmHg 28%
    18:00 +31°C° 0 mm 1 mps 698 mmHg 28%
    19:00 +31°C° 0 mm 1 mps 698 mmHg 29%
    20:00 +30°C° 0 mm 1 mps 698 mmHg 30%
    21:00 +30°C° 0 mm 1 mps 698 mmHg 31%
    22:00 +29°C° 0 mm 1 mps 698 mmHg 32%
    23:00 +29°C° 0 mm 1 mps 698 mmHg 34%

    23 October, Tuesday

    Time Temperature Precipitation Wind Pressure Humidity
    00:00 +28°C° 0 mm 1 mps 698 mmHg 36%
    01:00 +28°C° 0 mm 2 mps 697 mmHg 38%
    02:00 +27°C° 0 mm 1 mps 697 mmHg 42%
    03:00 +26°C° 0 mm 1 mps 697 mmHg 47%
    04:00 +25°C° 0 mm 1 mps 697 mmHg 51%
    05:00 +25°C° 0 mm 1 mps 697 mmHg 52%
    06:00 +25°C° 0 mm 1 mps 698 mmHg 53%
    07:00 +25°C° 0 mm 1 mps 698 mmHg 55%
    08:00 +27°C° 0 mm 1 mps 699 mmHg 49%
    09:00 +28°C° 0 mm 1 mps 699 mmHg 43%
    10:00 +29°C° 0 mm 1 mps 699 mmHg 36%
    11:00 +30°C° 0 mm 2 mps 699 mmHg 33%
    12:00 +31°C° 0 mm 2 mps 698 mmHg 30%
    13:00 +32°C° 0 mm 2 mps 698 mmHg 26%
    14:00 +34°C° 0 mm 3 mps 697 mmHg 26%
    15:00 +34°C° 0 mm 3 mps 697 mmHg 25%
    16:00 +34°C° 0 mm 3 mps 697 mmHg 24%
    17:00 +33°C° 0 mm 3 mps 697 mmHg 26%
    18:00 +32°C° 0 mm 2 mps 697 mmHg 27%
    19:00 +31°C° 0 mm 2 mps 698 mmHg 28%
    20:00 +31°C° 0 mm 2 mps 698 mmHg 29%
    21:00 +30°C° 0 mm 2 mps 698 mmHg 30%
    22:00 +29°C° 0 mm 1 mps 698 mmHg 31%
    23:00 +29°C° 0 mm 1 mps 698 mmHg 32%
    Show more